Location: Most
(50.5330°N, 13.6500°E)
Time: 19:46:42
(UTC+02:00)

ISS - Pass Details

Date: 27 May 2021
Orbit: 417 x 422 km, 51.6° (Epoch: 16 June)

Event Time Altitude Azimuth Distance (km) Brightness Sun altitude
Rises 23:51:03 0° 280° (W) 2,368 0.4 -16.3°
Reaches altitude 10° 23:54:04 10° 251° (WSW) 1,501 -1.0 -16.4°
Enters shadow 23:55:02 12° 234° (SW) 1,366 -1.4 -16.5°
